Theta_e
343 343 344 344 345 346 347 348 348 347 348 348 348 348 348 348 350 352 352 352 351 349 348 349 347 343 342 344 345 346 347 346 347 347 347 346 343 340 339 338 338 338 338 337 337 338 339 338 333 329 332 335 336 338 339 338 336 333 334 338 339 343 347 345 342 340 334 326 322 321 319 318 317 317
344 343 343 344 344 344 346 347 347 347 348 348 349 349 349 348 349 350 351 352 350 348 348 350 349 344 341 342 344 345 346 346 345 345 343 341 339 338 338 338 337 336 335 334 335 337 338 334 330 331 334 335 337 339 341 342 341 337 334 337 339 341 345 346 343 341 338 333 325 321 320 319 317 317
344 344 343 344 344 343 344 345 346 346 347 348 349 349 349 349 349 349 349 351 349 346 347 348 347 345 343 342 342 342 343 342 341 341 340 339 338 337 335 333 332 332 332 333 337 338 337 333 332 333 334 335 335 337 339 342 344 342 337 336 338 340 343 346 344 341 340 338 331 324 321 320 318 317
345 345 344 344 344 344 344 345 345 346 346 347 347 348 349 349 349 349 349 349 348 345 346 347 346 346 345 344 343 343 343 342 341 340 338 337 335 332 330 329 330 331 332 334 338 339 337 334 333 333 333 333 333 332 333 336 340 343 340 336 337 339 341 345 345 343 342 340 337 330 324 321 319 318
344 345 345 344 344 344 345 345 346 347 348 347 347 347 348 348 349 349 349 349 348 346 346 346 346 347 346 345 345 344 343 342 340 338 336 334 331 329 328 327 328 329 332 333 334 335 334 332 331 331 330 329 328 327 327 328 332 338 339 336 334 337 339 343 345 344 343 342 340 336 329 323 320 319
344 345 345 345 345 345 345 345 347 349 350 350 349 348 348 348 349 348 348 349 349 348 346 345 347 347 346 345 344 342 340 339 337 335 333 330 328 327 327 326 325 326 328 330 330 330 330 329 328 328 328 326 325 325 324 324 326 330 333 334 333 334 337 341 343 344 343 343 341 339 335 328 323 320
343 344 344 344 344 344 344 344 345 347 348 349 350 350 349 348 349 348 347 347 348 348 346 344 346 348 346 343 342 340 338 337 335 333 331 328 327 326 326 325 325 325 325 326 326 327 326 325 325 325 325 324 323 324 324 324 325 326 329 332 332 331 334 338 341 342 343 343 342 341 339 334 328 322
343 343 343 343 344 344 343 344 344 345 346 347 348 348 348 347 347 346 345 345 345 346 345 343 343 344 344 342 340 339 337 335 334 332 330 328 327 327 326 326 326 325 325 324 324 324 324 324 324 324 323 323 323 324 325 325 326 326 327 330 331 330 331 335 339 341 342 342 342 343 341 338 333 328
342 342 343 343 343 344 344 345 345 345 345 346 346 346 347 346 347 346 345 345 345 346 346 344 342 341 341 339 337 337 336 335 333 332 331 330 330 329 328 328 328 326 324 324 325 324 324 324 324 324 324 324 325 326 327 328 328 329 329 330 331 330 329 331 336 340 342 341 341 342 343 340 337 333
340 340 341 341 341 342 343 344 345 346 346 345 345 345 345 345 346 346 346 346 346 346 346 346 343 341 338 337 335 335 336 336 336 335 334 332 332 332 331 329 328 326 325 325 326 326 327 327 326 326 326 326 328 328 328 329 330 331 332 332 332 331 329 328 332 337 341 341 340 340 342 342 339 337
339 338 338 339 339 339 339 340 342 344 345 345 345 344 344 344 344 345 345 346 346 346 346 346 345 342 339 337 336 337 337 337 338 338 337 334 333 333 333 331 328 326 326 326 327 328 328 329 329 329 328 328 329 330 329 331 333 334 335 335 334 333 331 329 329 334 339 341 340 339 341 343 341 338
342 340 339 339 338 338 338 338 339 341 342 343 343 343 343 344 343 344 344 345 344 344 344 344 343 342 339 338 338 339 338 339 340 340 339 337 335 335 333 330 327 327 326 327 328 328 329 330 331 330 329 329 331 331 331 331 334 335 336 337 336 335 334 331 329 330 335 339 340 339 340 342 342 340
345 344 343 342 340 339 338 338 338 339 339 340 340 340 341 342 342 342 342 341 341 341 341 341 341 341 339 338 340 339 338 340 340 340 340 339 338 336 333 329 327 327 328 328 329 329 330 331 333 332 332 332 333 332 331 331 332 333 335 336 337 337 337 335 332 330 332 336 338 339 339 340 342 342
345 345 345 344 343 342 341 339 337 337 337 338 337 337 338 339 341 341 340 339 339 340 339 339 340 342 340 338 340 340 338 338 340 340 340 340 338 337 335 332 328 327 329 332 331 330 330 332 333 333 334 335 335 334 332 332 331 331 333 335 337 337 338 337 335 332 331 333 336 338 339 340 341 342
345 345 345 345 344 344 343 342 341 339 338 337 336 335 335 336 338 339 339 338 338 340 341 339 339 341 340 336 337 338 337 337 338 338 338 339 338 338 338 336 334 330 330 334 336 333 331 332 334 334 334 336 337 336 334 332 331 331 333 336 337 338 338 338 336 333 331 332 334 337 338 339 340 341
344 344 345 345 344 344 344 344 344 343 342 341 340 339 338 337 337 337 338 338 337 338 340 339 336 335 335 333 331 332 332 334 334 334 334 335 337 338 339 339 340 338 336 338 341 338 334 335 336 335 336 338 340 339 336 333 331 332 334 337 338 338 338 339 337 334 332 331 332 335 338 338 339 341
344 344 344 344 344 344 344 344 344 344 344 344 344 344 343 342 340 339 340 340 340 341 341 341 337 333 333 332 329 328 329 330 331 331 333 335 337 340 341 342 343 344 343 345 347 344 339 340 342 340 340 342 342 340 338 334 332 333 334 336 336 336 337 338 338 335 332 330 331 333 337 338 338 338
344 344 343 343 343 343 343 343 343 344 344 344 345 345 345 344 344 343 343 344 344 345 345 344 342 339 338 337 335 334 334 334 334 335 336 339 341 342 343 344 344 346 346 348 349 347 344 346 347 345 345 345 343 341 338 335 333 333 333 334 334 335 336 338 338 336 332 330 329 331 334 337 338 337
344 343 343 343 342 342 342 343 343 344 344 344 345 345 345 345 345 345 345 345 345 345 345 344 344 342 342 341 340 340 340 340 340 340 340 341 342 343 343 343 343 345 346 347 350 349 348 349 350 348 348 348 345 342 339 337 334 333 332 333 333 335 337 338 338 337 335 331 329 329 332 335 337 338
344 343 343 343 342 342 342 342 343 343 344 344 344 345 345 346 345 345 344 344 344 344 345 345 345 345 344 343 342 342 342 342 341 342 341 341 342 342 343 343 343 344 345 347 350 350 350 350 351 350 349 349 347 344 341 339 336 334 333 333 333 335 338 339 339 339 338 336 333 332 332 334 336 338
345 344 343 343 343 343 342 342 343 343 343 344 344 345 345 345 345 344 344 344 345 346 347 347 348 348 347 346 345 344 343 343 343 343 342 342 343 343 343 343 344 344 345 348 351 351 350 350 351 352 351 350 348 346 345 343 340 337 335 335 335 335 336 339 340 341 340 339 338 336 335 335 337 338
347 345 343 343 343 343 343 343 343 343 343 343 343 344 344 344 344 344 344 345 347 348 348 348 348 349 349 348 348 347 347 346 346 346 345 344 344 344 344 344 344 345 346 349 352 353 352 352 353 353 353 352 351 350 349 348 346 343 339 336 335 335 336 337 338 340 341 342 341 341 340 340 340 339
347 346 344 343 344 344 345 345 345 345 344 344 343 343 344 344 344 344 346 347 348 348 348 348 348 348 347 347 348 349 349 349 349 348 348 347 346 345 345 345 345 347 349 351 353 354 354 354 354 354 353 353 353 352 351 350 349 348 346 342 339 337 337 337 337 337 338 340 341 342 343 343 343 343
347 345 344 344 344 345 345 346 346 346 346 346 346 345 346 346 346 347 347 348 348 348 348 348 348 348 347 346 347 347 348 350 350 349 349 349 347 346 345 345 347 350 352 352 353 354 354 354 354 353 353 353 353 353 353 352 350 349 348 346 344 343 341 341 340 339 338 337 338 340 342 343 344 345
347 347 347 346 345 344 345 346 346 347 347 347 347 348 348 348 348 348 348 348 348 348 348 348 348 347 347 346 345 346 347 348 349 349 349 349 348 347 347 347 349 352 353 354 354 353 353 353 353 353 353 354 354 354 354 353 351 351 350 349 348 347 346 346 345 343 342 340 339 340 341 342 343 345
349 350 349 349 347 347 347 347 347 348 348 348 349 349 349 349 349 349 349 349 348 348 348 348 348 347 347 347 347 347 347 348 349 350 350 349 348 347 347 349 351 353 354 354 354 353 353 352 352 351 352 353 354 354 354 353 352 351 352 352 351 349 348 347 347 346 346 345 343 341 341 341 341 342
351 351 351 351 350 350 350 350 350 350 350 350 350 350 350 350 350 350 350 350 350 349 349 349 349 349 349 349 349 350 350 351 351 351 350 350 350 349 350 351 352 354 354 354 354 353 352 351 350 350 352 353 354 354 353 353 352 351 352 353 353 352 350 347 347 348 348 348 347 345 344 342 341 340
351 351 351 350 350 350 350 350 350 350 350 350 350 350 351 351 351 351 351 351 351 350 350 350 350 350 350 350 351 352 352 353 352 352 350 350 350 351 351 352 352 353 353 353 353 352 352 351 351 351 352 353 354 353 353 353 352 352 352 353 353 354 353 351 349 349 350 350 349 347 346 345 344 342
349 349 349 349 349 349 349 348 348 348 348 348 349 349 350 350 351 351 351 351 351 351 351 350 350 351 351 351 351 351 352 353 353 352 351 351 351 351 352 352 352 353 353 352 351 351 350 349 348 350 352 353 353 353 353 353 352 352 353 354 354 354 354 353 352 351 350 350 350 349 348 348 349 347
344 344 344 343 341 341 340 340 341 343 345 346 346 346 346 348 348 348 348 348 349 349 348 348 349 349 350 350 350 350 351 352 352 352 352 352 352 352 352 351 351 350 349 347 346 346 346 345 345 347 350 351 350 351 351 352 353 352 353 354 354 354 354 354 353 352 351 350 350 349 349 350 350 351
335 335 334 332 329 328 328 328 330 333 335 336 335 335 335 336 335 336 337 338 339 340 341 343 345 347 348 349 349 349 350 350 350 350 350 350 350 349 348 347 344 343 342 342 343 345 346 346 346 347 348 349 350 350 351 351 353 353 353 354 354 354 354 354 354 353 352 350 350 349 349 350 350 351
327 326 323 322 322 323 323 325 327 328 328 328 328 328 327 328 329 333 336 337 338 339 340 341 343 344 346 348 348 348 349 349 348 348 348 347 347 346 345 344 344 344 344 345 346 347 346 346 347 348 349 350 351 351 351 351 352 353 353 354 354 354 354 354 354 354 353 352 351 350 349 349 349 350
322 321 320 320 321 323 324 326 328 329 329 329 329 328 326 327 330 332 335 337 338 339 340 340 341 342 343 344 345 345 346 346 347 347 347 347 346 344 344 345 346 347 348 348 348 348 348 348 349 349 350 351 351 352 352 352 352 352 352 353 353 353 353 353 354 354 354 353 353 352 352 351 350 349
321 323 324 325 325 324 324 323 324 325 326 328 329 328 327 328 329 328 327 329 333 336 339 340 342 342 342 342 342 342 343 344 344 343 343 344 343 343 343 345 347 348 349 349 350 350 350 350 351 351 351 352 352 352 352 352 351 351 352 352 352 352 352 352 353 354 354 354 354 355 355 354 352 350
326 327 328 328 328 326 324 323 321 321 321 322 323 325 325 326 327 326 327 329 331 334 337 339 340 341 342 342 342 343 343 344 344 343 343 343 343 342 342 344 345 346 348 348 349 350 350 350 350 351 351 351 351 351 352 351 351 351 351 352 352 351 352 352 354 355 355 354 355 355 355 355 354 353
328 330 329 330 330 328 327 326 324 322 321 319 318 319 319 320 321 322 325 328 330 333 334 335 337 339 341 342 343 343 344 344 343 343 343 343 344 343 343 344 345 346 346 347 348 349 349 349 349 349 348 348 348 348 349 350 350 351 351 352 352 352 353 353 354 354 355 354 355 355 355 355 355 354
329 329 329 329 329 328 328 327 326 325 323 321 319 318 317 317 317 317 319 321 323 326 328 330 333 336 338 340 341 342 341 341 341 342 342 342 342 343 343 344 345 345 345 346 346 346 347 348 348 349 348 347 346 345 344 346 349 350 351 352 353 353 352 353 353 353 353 354 354 354 355 355 355 354
328 327 327 327 327 326 326 326 326 325 324 322 320 318 317 316 316 316 316 316 317 319 320 322 324 327 329 331 331 332 332 332 333 335 337 338 339 339 340 342 343 343 343 344 343 343 344 345 346 347 346 345 345 345 344 346 348 349 349 351 352 352 352 352 352 353 353 353 353 353 354 353 353 353
326 326 326 326 325 325 325 325 325 324 322 320 319 318 317 316 315 315 315 315 316 316 317 318 319 320 321 322 322 323 323 324 325 326 328 329 331 333 335 337 339 341 341 340 339 340 341 343 345 345 343 343 343 343 343 345 345 345 346 347 348 350 351 350 350 351 351 352 352 353 353 353 353 353
324 325 324 324 324 323 323 323 322 321 320 319 318 317 316 316 316 315 315 315 315 315 315 316 317 318 318 319 319 319 320 320 320 321 321 322 323 325 326 328 330 332 333 334 334 335 337 340 342 341 338 336 335 334 336 338 339 338 339 341 342 344 347 347 348 349 350 350 350 350 351 352 353 353
323 322 321 321 321 321 320 320 319 319 319 319 318 317 317 317 316 316 315 315 315 315 315 315 315 315 316 316 317 317 317 318 318 318 318 319 319 320 320 321 322 323 325 326 327 328 329 331 332 331 328 327 329 332 335 337 336 335 337 338 339 340 343 345 345 346 347 348 348 348 349 350 351 351
322 321 320 320 320 320 320 319 319 319 319 319 319 318 318 317 317 317 316 316 315 315 315 314 314 314 314 314 314 314 315 315 315 315 316 316 316 317 317 318 318 319 320 321 321 322 322 322 322 322 322 324 330 335 337 337 337 337 337 339 340 341 342 344 344 344 344 345 345 344 345 347 348 349
321 321 320 320 320 320 320 320 320 320 320 320 319 319 318 318 318 317 316 316 315 315 315 314 314 314 314 314 313 313 313 313 313 313 314 313 314 314 315 315 315 316 317 318 318 319 320 320 320 320 321 325 330 334 336 336 337 337 336 338 340 340 340 341 342 342 341 341 342 342 342 343 344 346
320 320 320 320 320 320 320 320 320 320 320 320 320 320 319 319 318 317 316 316 315 315 315 314 314 314 313 313 313 313 313 313 313 313 313 313 313 313 313 313 313 314 314 316 317 318 319 319 320 321 322 323 327 331 334 335 335 334 333 334 334 334 336 339 340 340 341 342 343 344 343 343 343 343
320 320 320 320 320 320 320 319 319 318 318 319 319 319 319 318 318 317 317 316 315 315 315 314 314 314 314 314 314 314 313 313 313 313 314 313 313 313 313 312 312 313 313 314 316 317 318 319 320 321 322 322 325 328 331 333 334 333 334 334 332 330 334 339 341 341 342 343 344 343 343 344 344 343
Wind_Speed
7 7 8 8 8 8 7 7 7 7 7 7 7 7 7 7 8 8 8 8 8 9 9 9 11 12 12 12 12 13 13 14 14 15 17 18 20 20 19 18 17 16 16 17 17 16 16 14 11 11 13 15 17 18 19 20 20 20 20 20 19 17 17 19 20 19 18 18 17 16 15 15 16 15
6 7 7 8 8 8 8 8 9 9 9 8 8 9 8 8 9 8 9 10 10 9 9 8 10 12 12 11 12 13 14 15 16 17 18 18 18 17 16 15 15 16 16 15 15 15 14 12 11 12 14 15 17 18 18 19 19 20 20 20 19 17 16 17 18 19 18 17 17 16 14 14 15 15
6 6 7 7 8 9 9 9 10 10 10 10 10 10 10 10 10 11 11 12 12 11 10 9 10 11 11 10 11 12 13 15 15 16 16 15 15 14 14 14 14 15 14 13 13 13 12 11 12 14 15 15 16 17 18 18 18 19 20 20 19 18 15 15 16 17 18 17 16 15 14 13 13 14
7 6 7 7 8 8 9 9 10 10 11 12 12 12 12 12 12 12 13 14 14 13 12 11 11 11 11 11 11 11 12 12 13 13 13 13 12 12 12 12 12 13 12 12 13 13 12 13 14 15 15 15 16 17 18 18 18 18 19 19 19 18 15 14 15 16 16 17 15 14 14 12 11 12
7 7 7 7 8 8 9 9 10 11 11 12 12 13 13 13 13 13 13 14 15 15 13 12 12 11 12 11 11 11 11 11 11 11 10 10 10 11 11 12 12 12 12 13 13 13 13 14 15 16 16 17 17 17 18 18 19 18 18 18 18 18 16 14 14 15 15 15 15 14 13 12 11 10
8 8 8 7 8 8 9 10 10 11 11 11 12 12 12 12 12 13 13 14 15 16 15 14 14 13 13 12 11 11 11 10 10 9 8 8 9 10 11 12 13 13 13 14 15 15 15 16 17 18 18 19 19 19 19 18 19 18 18 17 17 17 16 14 13 14 14 13 14 14 12 12 11 9
8 8 8 8 8 8 9 9 10 11 12 12 12 12 12 12 12 13 13 14 15 16 16 16 15 15 15 13 12 11 10 9 9 8 7 8 9 10 11 12 12 13 14 15 16 17 17 18 19 19 20 20 21 21 20 19 18 18 17 17 16 16 16 14 13 13 14 13 12 13 12 11 10 9
9 9 9 8 8 9 9 9 10 11 12 13 13 13 12 12 12 13 13 14 14 16 17 17 16 16 16 14 12 11 10 9 8 8 8 9 10 11 11 12 12 14 14 16 16 17 18 19 19 20 20 21 21 21 20 19 18 18 18 17 17 16 16 15 13 13 13 13 12 11 12 10 9 9
10 10 10 10 9 10 10 10 11 11 12 13 13 13 13 13 13 13 13 14 14 16 18 18 17 16 15 14 11 10 10 9 9 9 10 10 11 11 12 12 14 16 17 17 17 18 19 19 19 20 21 21 21 21 20 18 17 17 18 17 17 16 15 15 14 13 12 13 12 10 10 10 9 8
11 12 12 12 11 12 12 12 12 12 12 13 13 13 14 13 13 14 14 14 15 17 18 19 19 17 15 14 11 9 9 11 11 12 12 13 12 12 14 14 15 17 18 18 18 18 19 19 19 19 20 20 21 20 19 18 17 17 17 17 17 17 16 15 15 14 12 12 12 10 9 9 9 7
11 12 12 13 13 13 14 13 13 13 13 14 14 14 14 14 14 14 14 14 15 17 17 18 19 19 17 14 13 12 12 13 13 14 15 16 15 15 17 17 17 18 19 19 20 19 19 20 20 20 20 20 20 19 18 17 16 16 17 17 17 17 16 15 15 15 14 13 12 10 8 8 8 7
11 12 12 13 13 14 14 13 13 14 14 15 15 15 14 14 15 15 15 15 16 17 18 19 20 19 18 16 15 15 15 15 16 16 17 18 18 19 20 20 20 20 21 21 21 22 22 23 23 22 21 21 19 18 17 16 15 15 16 17 17 17 17 16 16 15 15 14 13 11 9 7 7 6
11 11 12 13 13 13 13 13 13 14 14 14 15 15 15 15 16 17 17 18 18 18 19 20 20 19 19 18 18 18 18 18 18 18 19 20 21 22 23 22 21 22 24 25 24 24 24 26 26 25 24 23 21 19 18 16 15 15 16 17 18 18 17 17 16 16 16 15 14 12 9 8 7 6
13 12 12 13 13 12 12 13 13 14 14 15 16 16 16 16 16 17 17 18 18 18 19 20 20 20 21 21 21 21 21 21 21 20 21 22 22 24 26 25 23 23 25 28 29 27 27 28 28 26 25 24 23 22 20 18 17 17 17 18 18 18 17 16 16 16 16 16 15 13 11 9 8 7
14 14 14 14 13 12 12 12 13 13 14 15 16 17 17 17 17 18 18 19 18 18 19 20 21 22 24 24 23 24 24 24 24 23 23 24 24 25 27 28 27 26 26 29 32 31 29 30 30 28 26 25 24 23 21 19 17 17 17 17 17 18 17 16 16 16 16 16 15 14 12 10 9 8
16 15 15 15 16 15 14 13 14 14 14 14 15 16 16 17 17 18 19 19 19 19 19 21 22 23 24 25 25 24 25 26 26 25 25 25 25 25 26 27 28 28 28 30 33 34 32 31 32 30 29 27 25 23 21 19 17 16 16 16 16 17 18 17 15 15 16 16 16 15 14 13 11 10
18 18 17 17 17 17 16 16 16 16 15 14 14 14 15 15 16 16 16 17 18 19 20 22 23 23 23 25 25 23 24 25 25 25 25 24 25 26 26 27 28 29 30 31 33 35 32 31 33 32 30 28 26 23 20 17 16 16 15 16 17 18 18 17 16 14 15 16 16 16 15 14 13 12
19 19 19 19 18 17 17 17 17 16 16 16 15 15 15 16 16 16 16 16 17 18 19 22 23 23 23 24 24 22 22 23 24 24 24 24 25 27 28 28 29 29 29 30 32 34 33 31 32 32 30 27 26 23 20 17 16 16 16 16 17 17 18 17 15 14 14 15 16 16 16 16 15 14
19 19 20 20 20 19 18 17 17 18 19 19 18 18 18 18 18 18 18 18 19 20 21 23 24 24 24 24 24 23 22 23 23 24 25 27 28 29 30 30 31 31 32 31 31 33 33 31 31 31 29 27 27 25 22 19 17 16 16 16 16 16 16 15 14 14 13 14 15 15 16 17 17 16
18 19 20 21 21 21 20 18 19 20 21 21 22 21 21 21 21 22 21 20 21 22 23 25 26 27 27 27 26 26 25 26 26 27 29 30 29 30 31 32 33 33 33 33 33 33 33 31 29 29 28 27 27 26 24 21 19 18 17 17 17 16 15 14 14 14 14 14 15 15 16 17 17 18
19 20 20 21 22 23 22 22 22 22 23 24 24 24 24 24 25 24 23 24 25 25 26 27 28 28 29 29 29 29 28 28 28 29 32 31 30 30 31 33 34 34 34 34 32 31 31 30 28 28 28 28 28 26 24 22 20 19 18 17 17 17 16 15 15 15 14 15 15 15 16 17 18 19
22 21 21 22 23 24 24 24 24 24 25 26 26 27 27 28 28 27 27 28 30 30 30 29 29 28 28 29 30 31 30 30 30 32 34 32 30 29 31 32 33 34 34 31 27 27 29 27 25 24 25 25 26 27 27 25 23 21 20 19 18 18 18 18 18 17 17 16 16 16 17 17 19 21
24 23 23 22 22 23 23 24 24 25 26 26 27 28 28 29 30 29 30 32 33 32 32 31 29 28 28 27 28 29 28 28 28 31 33 33 31 30 31 31 31 32 30 27 25 26 26 24 21 21 22 23 25 26 28 29 28 26 24 22 21 20 19 20 20 21 21 20 19 19 19 19 20 20
24 24 24 24 24 24 24 24 24 24 25 26 26 27 28 29 30 31 32 33 33 32 32 31 30 29 28 28 28 29 28 27 27 28 29 30 30 30 31 30 29 27 26 24 24 25 25 24 23 23 23 23 24 23 23 27 31 31 30 27 25 23 21 21 20 21 22 23 23 22 22 22 21 21
21 21 21 23 26 26 26 26 26 26 26 26 27 28 29 30 31 32 33 33 32 32 32 31 31 30 30 30 30 30 30 30 29 30 29 28 28 28 29 29 28 25 23 23 23 24 26 28 29 28 26 23 23 23 23 26 32 32 28 27 26 25 24 23 22 21 21 22 23 24 25 24 24 23
21 20 20 22 26 26 26 27 28 28 28 29 29 29 30 31 31 32 32 32 31 31 31 31 31 31 30 30 29 29 29 28 27 26 25 25 25 26 26 27 28 27 25 25 25 26 28 30 30 31 29 25 24 24 23 26 30 30 25 21 22 24 25 24 24 24 23 22 23 24 26 27 27 27
20 20 21 23 24 25 24 25 26 26 27 28 28 28 29 29 30 30 30 30 30 30 30 30 30 30 28 27 25 23 23 21 19 19 21 22 23 24 24 25 27 28 28 28 28 28 30 31 31 31 30 27 25 24 22 23 26 27 23 19 18 20 23 25 26 26 25 25 24 24 25 27 28 29
17 19 21 21 21 21 21 22 22 22 22 23 24 25 26 26 26 26 27 28 28 28 28 28 27 26 24 22 21 20 19 18 18 19 22 23 23 24 25 26 28 30 31 31 31 30 29 29 29 29 28 26 24 22 23 24 25 25 23 20 19 17 18 24 30 29 25 24 25 24 25 25 26 27
17 18 19 19 19 18 19 19 20 20 20 21 21 22 22 22 22 22 23 24 25 26 26 25 23 20 18 19 20 20 20 20 20 21 22 22 23 24 25 28 29 29 30 31 31 29 26 25 25 25 25 24 23 23 23 23 24 26 25 23 22 20 20 24 29 28 24 22 23 23 23 24 24 25
16 16 16 16 16 16 17 18 18 19 20 20 20 21 21 21 20 21 22 23 24 25 26 25 22 18 19 22 23 21 21 20 19 19 19 19 20 21 22 25 27 26 26 27 26 24 22 21 21 22 24 25 26 26 25 22 22 26 28 26 24 23 22 21 23 23 22 21 20 21 23 24 25 26
12 13 13 13 13 14 15 15 16 18 19 19 19 20 21 21 20 19 20 21 22 23 24 23 20 20 22 23 23 21 20 18 16 15 16 16 16 16 17 21 23 23 21 20 19 18 19 19 19 20 22 24 25 25 25 23 22 24 27 25 22 20 19 18 19 20 20 18 18 20 21 22 24 26
11 11 11 12 12 12 13 13 13 13 14 14 14 16 18 19 17 15 15 15 15 17 18 18 18 19 20 19 17 17 16 15 14 15 16 16 16 16 16 18 19 18 17 16 14 15 18 20 20 20 20 22 24 24 25 24 24 24 24 22 19 18 19 18 17 16 16 16 18 19 20 20 21 23
13 12 11 10 10 10 11 10 10 10 10 11 11 13 15 14 14 14 14 13 13 13 14 15 16 17 16 15 14 14 14 14 14 15 16 17 18 18 18 18 19 20 20 19 18 18 20 21 21 20 20 22 24 24 24 25 25 24 22 20 19 20 20 19 18 17 17 18 18 18 19 20 19 18
14 11 10 9 9 9 9 9 9 10 11 11 11 13 14 13 13 16 18 17 16 15 14 14 15 16 16 15 15 15 15 15 16 17 17 16 17 18 18 19 20 20 20 20 18 18 20 21 21 21 21 22 23 24 23 24 26 24 21 20 21 23 22 20 20 19 19 20 19 18 17 18 18 17
10 8 7 8 9 9 9 9 10 11 11 12 12 13 13 14 15 17 18 17 17 16 15 14 15 16 17 16 16 15 15 15 15 16 16 15 16 18 18 19 19 19 18 17 16 15 17 18 18 19 20 21 22 23 23 23 23 23 20 20 21 22 22 21 19 18 19 19 20 20 19 18 17 17
7 6 7 9 9 10 10 11 12 12 13 14 14 14 15 15 15 16 16 16 18 18 19 18 18 18 19 19 18 17 17 16 16 16 14 14 15 16 17 17 17 17 17 17 16 16 17 18 18 19 21 23 24 25 26 24 22 22 22 20 20 20 20 20 19 20 20 20 21 22 22 21 18 17
7 8 9 10 10 11 12 13 14 15 15 16 16 17 17 17 17 17 17 18 19 20 20 20 21 22 23 23 22 22 22 22 22 21 21 20 19 18 19 19 19 19 20 21 21 20 20 21 20 20 22 23 25 28 30 27 24 22 21 20 21 21 21 21 22 23 23 23 22 22 23 24 23 20
8 9 10 11 12 13 15 16 17 18 18 19 19 19 19 19 20 20 19 20 20 20 21 21 21 23 23 24 25 25 25 25 25 25 25 26 25 24 24 24 24 25 25 26 26 24 23 23 23 23 25 26 25 26 28 28 27 26 24 23 24 25 24 24 25 24 23 23 24 23 23 26 26 24
11 12 13 14 16 16 17 19 20 20 20 20 19 19 19 19 20 20 21 21 21 21 21 21 21 21 22 22 23 24 24 25 26 26 26 27 26 26 26 26 27 28 29 29 29 26 24 22 22 24 26 26 25 26 27 29 32 33 31 29 28 27 25 25 26 26 25 24 24 24 24 25 26 26
14 14 14 16 17 18 18 19 20 20 20 19 18 18 18 18 18 18 19 20 21 21 22 22 22 23 23 23 23 23 24 24 25 26 26 26 27 27 28 28 29 30 30 31 31 27 23 21 22 25 28 30 30 30 30 31 35 37 35 33 32 30 28 27 27 28 28 27 26 27 26 26 26 26
13 14 15 16 16 16 17 17 17 18 17 17 17 17 17 18 18 18 19 19 20 21 21 22 23 23 24 24 25 25 25 26 26 27 27 28 29 29 29 30 30 30 30 31 32 30 28 27 28 30 31 33 33 31 28 30 35 37 36 34 34 33 31 30 29 30 29 28 27 29 30 29 28 28
12 13 15 16 16 16 16 16 16 16 17 17 18 18 19 19 20 20 21 21 22 22 23 23 24 24 25 26 26 27 27 28 28 29 29 30 31 31 31 31 32 31 31 33 34 35 35 34 33 32 31 29 26 24 25 28 32 35 36 34 33 33 33 33 31 30 30 29 29 31 32 31 30 30
14 14 16 17 17 17 17 17 17 17 18 18 19 20 20 21 21 21 22 22 23 23 24 25 25 26 27 27 28 28 28 29 29 30 31 31 32 33 34 34 34 34 34 34 36 36 36 35 34 32 30 27 23 22 24 27 29 32 35 34 33 32 33 32 32 32 33 32 30 29 29 29 28 30
16 16 18 19 19 19 19 18 19 19 19 19 19 20 20 21 22 22 22 23 24 24 25 26 26 27 28 28 29 29 30 30 30 31 31 32 32 33 34 36 37 37 37 36 36 36 35 33 31 30 29 28 26 24 26 27 28 31 33 33 33 34 34 32 31 31 30 28 25 24 23 23 25 27
19 19 19 20 20 20 20 20 20 20 19 19 20 20 21 21 21 22 23 24 25 26 27 27 28 29 29 30 30 31 31 31 32 32 32 32 32 33 35 36 36 38 38 36 35 35 35 33 31 29 29 29 28 26 26 28 28 29 31 32 33 34 32 28 25 24 24 24 25 26 26 25 25 27
Wind_Direction
256 253 253 254 255 256 258 262 264 263 267 276 285 294 303 310 317 318 315 317 318 316 318 315 307 303 302 299 300 301 302 304 308 310 312 314 317 319 322 323 326 329 331 332 333 335 338 338 340 346 349 350 351 354 356 358 358 357 354 354 357 1 5 9 10 12 16 21 25 22 13 12 18 27
257 259 260 262 262 261 260 262 265 264 267 273 281 288 293 299 305 309 311 312 313 314 316 313 307 305 304 299 295 294 295 300 304 307 310 314 318 322 323 324 326 327 328 330 333 337 339 339 340 343 345 346 346 347 348 351 354 355 353 350 351 355 360 5 8 10 12 17 23 25 19 12 13 18
253 260 262 263 265 266 265 266 267 267 267 271 278 283 288 293 296 301 306 305 306 312 312 308 306 308 311 310 305 300 300 303 306 309 313 319 322 325 326 328 328 327 328 333 337 338 337 337 338 340 340 341 341 340 341 342 345 349 351 348 347 349 353 358 4 7 9 12 18 25 24 17 13 13
249 258 263 264 264 266 268 270 273 272 271 272 275 280 285 289 291 295 299 299 301 307 308 305 306 307 309 312 313 310 309 309 310 313 317 321 325 328 332 336 336 334 335 339 339 337 334 333 333 333 333 333 334 335 337 337 337 340 345 346 344 344 347 350 356 2 6 8 12 20 24 22 16 13
254 256 260 264 267 267 268 269 272 275 276 275 277 280 282 285 287 290 294 296 298 302 305 304 305 305 306 310 313 312 311 310 310 312 317 321 326 329 333 336 339 339 338 337 336 334 331 328 326 324 324 325 327 330 333 334 333 333 338 341 340 340 341 343 347 354 1 5 7 13 21 24 20 15
261 259 259 263 269 273 272 272 272 272 273 273 275 277 279 280 283 286 289 291 293 298 302 303 305 307 309 311 316 316 313 310 307 309 314 320 324 324 326 330 333 332 331 328 326 324 323 321 320 319 320 321 322 325 329 330 330 329 331 334 334 335 337 337 339 345 352 360 4 7 14 20 22 18
263 261 261 262 267 272 273 274 274 271 269 269 269 272 275 277 279 282 285 286 288 292 297 301 304 307 309 313 317 317 314 311 309 309 312 316 320 321 321 323 324 325 324 322 319 318 317 317 316 316 317 318 319 321 325 326 325 324 324 325 326 329 332 333 332 336 343 350 357 3 8 14 20 20
265 262 260 260 261 264 268 272 275 274 271 269 269 270 273 275 277 279 281 283 285 288 292 297 302 304 306 310 313 314 313 311 310 310 312 313 316 316 315 316 316 316 317 317 316 315 315 316 316 315 315 316 317 319 321 322 321 319 318 317 318 321 326 328 327 328 334 340 346 353 1 8 15 19
270 268 265 264 263 263 266 269 272 273 272 271 271 271 272 274 276 278 279 281 283 284 288 294 298 301 304 306 307 310 312 312 312 312 311 311 312 310 309 311 315 315 315 316 318 318 318 317 316 315 315 315 317 319 319 319 317 316 315 313 311 313 318 322 323 322 325 332 335 340 351 1 8 15
275 274 272 272 270 269 270 272 273 272 274 276 277 276 276 277 278 279 280 281 282 284 287 291 294 297 300 301 301 303 306 310 314 314 309 307 309 310 308 307 312 317 317 317 319 319 319 318 317 315 315 316 318 319 319 318 316 315 315 314 310 308 311 315 317 316 317 322 327 327 335 350 1 8
275 276 276 275 274 273 273 274 275 275 277 281 283 283 283 283 283 283 285 285 286 288 289 291 293 295 295 295 296 296 299 304 310 314 312 308 308 312 312 309 310 313 314 316 318 317 316 316 316 315 315 316 319 320 319 319 319 318 316 315 313 308 305 306 308 310 310 314 318 318 319 333 350 1
276 275 275 274 275 275 274 273 274 275 277 280 281 282 283 284 284 285 286 287 288 289 290 291 292 293 292 291 293 295 299 303 309 314 315 312 310 312 311 310 311 312 313 315 317 316 315 316 317 317 316 317 318 317 317 316 316 316 314 313 312 309 304 300 299 302 304 307 310 310 307 314 332 347
277 276 276 274 273 273 273 271 270 271 273 276 279 281 282 282 282 282 283 284 286 287 288 288 289 289 289 289 292 295 298 301 305 309 311 311 311 312 310 308 309 312 315 316 314 313 315 316 317 318 318 318 318 316 314 312 310 309 308 307 308 309 306 299 294 294 297 300 304 303 298 298 310 325
275 278 279 278 275 272 270 269 268 269 271 273 276 279 280 281 282 283 284 286 287 289 288 287 287 286 286 287 290 293 296 298 301 305 307 307 308 311 311 309 308 311 315 316 314 313 314 314 315 318 319 319 319 317 314 311 306 304 303 304 306 308 308 303 294 288 289 293 297 296 291 287 293 304
269 274 277 278 277 273 269 269 269 268 268 269 270 272 273 275 276 277 280 283 285 288 288 289 289 287 286 287 289 292 295 297 300 301 302 304 307 310 311 311 311 311 313 313 312 311 312 313 315 317 318 320 321 318 315 310 304 301 300 302 304 305 307 306 299 287 282 285 290 291 287 281 282 290
265 267 271 276 278 276 272 272 273 271 270 271 273 274 274 273 272 273 276 279 282 285 286 287 287 286 287 289 289 291 295 297 298 299 299 302 306 307 307 308 310 311 311 312 311 310 311 313 315 316 319 321 321 317 313 309 302 297 296 297 299 303 305 307 303 292 282 280 284 285 283 279 277 280
269 268 270 274 278 280 279 279 280 279 279 280 280 280 279 276 275 274 276 279 283 286 288 288 288 288 290 291 291 294 296 297 297 299 300 302 304 304 304 305 307 309 311 313 312 309 310 314 315 315 318 319 317 314 311 308 300 291 289 292 296 301 306 308 306 298 287 281 280 282 281 278 276 277
273 272 273 275 277 280 282 282 283 284 283 282 280 278 276 274 274 273 274 276 279 281 283 285 287 290 291 292 293 295 296 296 296 297 298 300 299 299 301 302 303 306 308 312 312 309 310 314 314 314 318 317 313 311 309 304 296 288 286 289 294 299 304 306 306 302 294 285 281 280 281 278 276 277
273 271 272 274 276 278 279 280 280 279 279 278 277 275 274 273 273 271 270 273 277 279 280 282 283 285 285 286 287 289 290 290 291 292 293 293 294 296 298 299 301 305 308 311 313 310 310 314 315 315 316 315 311 311 309 303 294 286 284 286 290 295 299 302 302 301 298 292 286 281 279 278 276 276
273 269 269 270 272 273 274 274 273 274 274 275 275 274 274 274 275 274 272 273 275 278 281 282 283 283 282 282 282 282 283 284 286 286 286 287 291 295 297 298 302 307 311 313 313 311 311 314 315 314 313 312 310 310 310 307 299 289 284 282 282 284 289 293 295 295 294 292 289 285 281 278 275 274
270 267 266 266 267 267 268 270 270 272 273 274 274 274 274 276 277 278 279 280 281 283 285 286 286 283 281 280 279 278 277 278 280 281 281 283 287 290 293 296 299 304 309 309 309 309 310 312 313 311 309 308 308 309 311 311 305 296 288 282 278 276 278 281 283 285 286 287 286 285 282 278 274 271
268 265 263 264 265 266 266 267 269 271 273 274 275 276 277 278 278 280 282 285 286 289 291 291 289 287 284 282 281 280 279 278 278 278 278 280 283 284 286 291 296 300 304 305 305 307 309 310 309 308 307 306 305 308 309 309 308 304 297 289 282 278 277 277 276 275 277 279 281 281 280 278 274 272
265 263 261 263 266 268 269 269 270 272 273 274 276 277 279 280 281 283 285 286 288 290 292 292 291 291 290 289 288 286 283 282 281 280 279 279 279 280 283 288 293 296 298 300 302 305 306 305 302 304 306 304 302 303 304 303 304 304 302 297 291 286 283 280 277 274 272 272 274 275 276 276 276 276
262 262 262 263 264 267 270 271 272 273 274 275 276 277 279 280 281 283 284 285 287 288 289 289 290 290 292 293 293 290 287 284 284 283 281 278 276 278 281 285 288 290 290 294 299 302 302 301 300 301 302 298 297 299 300 300 302 303 303 301 298 294 292 289 284 277 273 271 270 271 272 272 273 275
262 263 264 264 265 267 270 272 273 274 274 275 275 276 277 278 279 280 281 283 285 286 287 288 288 290 291 293 292 291 289 287 287 287 286 283 278 276 278 282 284 284 285 290 295 298 300 301 301 302 300 294 291 294 295 296 299 302 302 301 299 297 294 293 291 286 279 273 270 268 268 268 267 269
265 265 265 266 268 270 271 272 273 274 274 275 275 276 276 277 278 279 280 282 283 284 285 285 285 287 288 289 289 288 288 288 288 287 286 283 279 275 275 278 281 282 285 289 292 295 297 298 298 299 298 293 291 291 290 292 296 299 299 298 299 299 296 292 292 293 289 283 275 269 267 265 264 265
267 269 269 270 273 274 274 273 273 275 276 277 278 278 277 277 278 279 280 281 282 282 282 283 284 286 287 287 286 286 286 286 284 281 279 278 278 278 277 277 279 281 285 289 291 294 296 296 296 296 295 292 291 289 287 289 293 296 295 291 291 296 297 297 298 298 295 290 283 276 270 267 264 264
273 274 276 278 280 282 282 281 281 282 282 282 282 281 280 280 280 280 281 281 282 282 283 285 288 290 291 290 290 290 290 287 283 281 280 278 277 278 278 279 280 283 286 288 291 294 296 296 297 297 294 291 288 286 286 290 294 297 297 291 286 284 288 294 300 303 301 294 288 282 278 275 271 266
273 274 277 280 282 284 286 288 290 292 292 291 290 287 285 283 281 280 280 282 283 284 286 288 290 292 291 291 292 293 293 291 289 286 284 282 281 280 281 283 285 286 289 292 295 296 295 294 296 296 292 287 284 282 284 288 292 295 296 293 290 288 288 291 298 304 307 301 293 286 280 276 273 269
274 277 281 284 286 287 288 288 289 289 289 290 289 287 285 283 280 279 278 279 280 282 284 287 289 291 292 293 293 294 296 298 298 294 290 289 289 288 288 290 291 293 296 299 301 299 295 292 293 291 287 285 284 283 283 284 286 290 292 291 289 291 293 293 293 301 308 306 295 285 278 272 268 266
291 291 294 295 295 297 297 295 291 287 286 286 286 286 285 283 283 284 284 284 285 286 288 289 291 293 294 295 296 297 298 300 300 297 294 293 293 293 293 294 295 298 300 301 300 297 294 294 292 286 284 284 284 282 283 281 279 281 285 286 285 285 289 289 288 294 304 306 296 288 283 277 272 268
302 302 302 300 299 300 300 298 295 291 289 289 289 291 291 290 290 292 294 294 293 291 292 293 295 297 297 297 299 301 300 301 300 298 297 297 297 297 296 295 295 298 301 301 298 294 295 298 298 293 287 286 284 283 282 280 276 276 279 281 280 281 284 286 285 286 294 298 297 297 295 292 286 279
305 308 308 306 305 304 303 301 299 296 294 292 292 290 291 294 296 294 292 289 283 280 286 291 293 294 295 298 301 302 302 300 299 297 296 295 296 296 296 296 297 299 301 302 301 298 298 300 301 299 294 291 289 286 282 277 275 275 276 277 277 280 284 286 286 286 288 289 292 296 297 297 296 293
308 312 314 313 311 310 311 310 308 307 304 302 299 291 286 288 290 290 293 297 295 292 294 295 295 297 299 301 303 302 301 301 301 301 301 298 298 298 299 299 300 301 303 303 301 300 301 303 304 303 300 299 297 293 288 285 283 281 278 276 276 278 281 284 285 285 286 285 286 286 286 288 292 294
307 311 311 309 307 310 315 316 315 316 314 310 307 302 295 291 286 282 285 291 294 293 291 289 291 295 297 298 300 300 301 303 305 307 309 307 305 305 305 303 302 302 303 303 302 304 307 311 313 312 310 311 309 304 301 301 299 296 291 285 280 279 281 283 281 277 280 285 287 285 282 282 287 291
297 300 302 304 305 309 314 316 317 319 319 316 313 312 310 307 300 292 287 285 285 286 287 287 289 290 291 293 296 296 297 300 302 304 307 309 310 308 305 301 297 296 298 300 302 305 308 311 314 313 312 315 313 308 305 305 306 307 303 296 288 285 285 287 283 279 282 286 284 282 282 282 283 284
285 290 294 298 304 310 314 317 317 318 318 318 318 316 315 314 311 307 303 297 293 291 290 288 286 286 288 290 292 291 292 293 295 296 297 299 301 299 297 297 297 297 298 299 300 304 307 309 310 308 308 309 308 305 304 303 302 304 303 297 293 292 291 290 287 286 287 288 284 282 282 282 281 280
283 288 290 292 298 304 308 311 314 316 317 317 318 318 316 314 312 311 310 308 306 304 303 300 295 293 292 293 292 293 294 294 294 294 294 295 295 293 291 292 295 296 297 298 300 302 304 305 305 304 305 305 303 301 302 300 296 295 294 290 288 289 290 290 290 290 290 289 287 286 283 282 283 283
280 286 290 292 294 297 299 302 307 311 314 316 317 317 315 313 313 313 312 311 310 310 311 311 309 307 306 305 304 304 304 303 303 302 301 300 298 296 293 291 291 293 295 297 299 300 301 303 303 302 302 302 297 293 294 294 292 291 290 288 286 286 288 291 293 293 292 290 288 286 285 285 286 286
278 282 287 288 290 293 296 299 303 306 309 311 313 314 316 316 316 316 316 315 314 314 314 313 313 312 312 312 312 312 311 311 310 310 310 308 305 303 302 299 297 296 296 296 296 295 294 295 293 292 292 291 289 288 288 287 287 288 289 290 289 289 289 289 289 289 290 291 292 289 287 287 287 288
279 284 288 289 291 295 297 300 303 305 306 308 309 312 316 318 319 319 319 319 318 318 318 318 317 316 316 315 315 315 315 314 314 314 314 313 311 310 309 308 306 303 301 298 297 295 293 291 290 289 289 288 289 289 287 283 283 286 288 289 289 289 288 286 285 285 284 284 286 287 286 285 287 288
279 285 289 292 296 298 301 302 304 304 305 306 308 311 313 315 317 319 320 321 321 320 320 321 320 320 320 319 319 319 318 317 317 317 317 316 316 314 314 313 312 310 308 305 303 301 299 298 298 296 294 292 291 290 286 281 282 286 288 288 287 286 285 284 284 284 281 279 281 283 282 282 283 283
275 282 289 292 294 296 298 300 300 301 302 303 305 308 310 312 315 317 318 320 321 320 320 320 320 320 321 320 320 321 321 320 319 318 318 317 316 316 315 315 314 313 311 309 307 305 304 304 303 303 300 297 294 290 286 283 282 284 286 288 287 286 285 284 283 283 282 283 283 280 276 274 274 274
269 278 284 287 288 291 293 294 293 293 296 298 301 304 307 309 313 315 317 319 319 319 319 319 319 320 320 320 320 321 321 321 319 318 318 319 318 317 317 316 315 313 313 311 310 308 307 306 305 303 300 296 293 288 284 283 283 283 285 287 288 288 287 287 286 287 287 288 287 282 277 273 271 274
268 274 276 278 280 282 284 286 287 288 291 294 296 299 301 304 308 312 314 315 316 316 316 317 318 317 317 317 318 319 319 319 318 318 319 319 318 317 317 316 314 313 312 312 310 309 308 307 305 302 299 297 295 290 286 285 286 287 288 289 290 291 291 289 287 286 284 282 282 283 281 277 275 279